Regional Weather Roundup
Issued by NWS

Home | Current Version | Previous Version | Graphics & Text | Print | Product List | Glossary On
Versions: 1 2 3 4 5 6 7 8 9 10 11 12 13 14 15 16 17 18 19 20 21 22 23 24 25 26 27
000
ASUS45 KSLC 200610
RWRUT

UTAH REGIONAL WEATHER ROUNDUP
NATIONAL WEATHER SERVICE SALT LAKE CITY UT
1200 AM MDT SUN AUG 20 2017

UTZ001>011-023>025-200700-

NORTHERN UTAH

CITY           SKY/WX    TMP DP  RH WIND       PRES   REMARKS
BRIGHAM CITY   PTCLDY    70  37  29 SE8       29.99F
HILL AFB       PTCLDY    74  36  25 E13       30.02R
LOGAN          PTCLDY    60  44  55 VRB3      30.02R
OGDEN          PTCLDY    72  38  29 S8        29.99R
SALT LAKE CITY PTCLDY    82  42  24 CALM      29.98R
TOOELE VALLEY  PTCLDY    68  41  37 SE7       30.00S
WENDOVER       MOCLDY    76  39  26 SW8       29.98S
HEBER CITY     PTCLDY    63  37  39 SE3       30.12R
WEST JORDAN    PTCLDY    75  49  39 SW6       30.02R

$$

UTZ011>015-024>027-200700-

CENTRAL/NORTHEAST UTAH

CITY           SKY/WX    TMP DP  RH WIND       PRES   REMARKS
PROVO AIRPORT  MOCLDY    72  46  39 E6        30.03R
MOAB/CANYONLAN MOCLDY    75  35  23 SW3       30.01F
DELTA          MOCLDY    77  34  20 S8        30.05R
PRICE          PTCLDY    69  38  32 W6        30.15R
ROOSEVELT      CLEAR     63  45  51 W6        30.12S
VERNAL         CLEAR     67  40  37 SW6       30.09R

$$

UTZ013>016-019>022-027-200700-

SOUTHERN UTAH

CITY           SKY/WX    TMP DP  RH WIND       PRES   REMARKS
BRYCE CANYON   PTCLDY    54  37  52 W5        30.30S
CEDAR CITY     CLEAR     70  36  28 SE8       30.14R
MILFORD        PTCLDY    71  31  22 NW3       30.08R
ST GEORGE      PTCLDY    81  41  24 SE9       29.93R
HANKSVILLE     MOCLDY    81  34  18 W13       30.05R
BLANDING       MOCLDY    74  32  21 NW12      30.19R

$$

REGIONAL REPORTS     COLORADO/ARIZONA

CITY           SKY/WX    TMP DP  RH WIND       PRES   REMARKS
CRAIG, CO      CLOUDY    61  40  45 E3        30.18R
GRAND JUNCTION CLOUDY    70  32  24 E5        30.06R
RIFLE, CO      CLEAR     65  39  38 SE9       30.14R
MONTROSE, CO   CLEAR     65  40  39 SE9       30.16S
CORTEZ, CO     CLEAR     58  37  45 NE5       30.14S
COLORADO CITY    N/A     63  45  51 SE5       30.12S
PAGE, AZ       PTCLDY    86  36  16 W3        30.00R
GRAND CANYON   PTCLDY    54  41  61 CALM      30.26R
KINGMAN, AZ    CLEAR     79  42  26 S10       30.00S
FLAGSTAFF, AZ  PTCLDY    61  43  51 CALM      30.29R

$$

REGIONAL REPORTS    NEVADA/IDAHO/WYOMING

CITY           SKY/WX    TMP DP  RH WIND       PRES   REMARKS
LAS VEGAS, NV  CLEAR     92  41  17 S5        29.86R
ELY, NY        PTCLDY    58  35  42 S12       30.17S
ELKO, NV       PTCLDY    75  30  19 N8        30.05R
POCATELLO, ID  CLOUDY    73  34  23 S14       30.03R
BURLEY, ID     CLEAR     66  35  31 SW6       30.01S
FORT BRIDGER,    N/A     61  32  32 SW10      30.24S
EVANSTON, WY   CLOUDY    63  32  31 S7        30.23R
ROCK SPRINGS,  CLEAR     66  32  28 CALM      30.20R

$$




USA.gov is the U.S. government's official web portal to all federal, state and local government web resources and services.